CHH7319 ZJHK-ZSSS

Flight info

Callsign CHH7319
Flight time N/A
Altitude 33100
Route K0900S1250 DCT AGTEL W71 LH DCT GYA A599 POU G471 XEBUL DCT ODOPI DCT AKAVO DCT UPNUG W76 AREPI B221 SHZ G204 JTN
Aircraft A359/H-SDE2E3GHIJ3J4J5LM1ORWXY/LB1D1

Departure

Time 2026-05-08 08:55
Airport Haikou Meilan International Airport (ZJHK)

Arrival

Time N/A
Airport Shanghai Hongqiao International Airport (ZSSS)
Time Latitude Longitude Altitude Speed Heading
2026-05-08 08:29 19.94987 110.46163 64 ft 0 kts 244°
2026-05-08 08:47 19.94990 110.46170 55 ft 4 kts 244°
2026-05-08 08:47 19.95002 110.46196 55 ft 4 kts 245°
2026-05-08 08:47 19.95013 110.46222 55 ft 4 kts 246°
2026-05-08 08:47 19.95024 110.46248 55 ft 4 kts 247°
2026-05-08 08:48 19.95034 110.46275 55 ft 4 kts 249°
2026-05-08 08:48 19.95044 110.46302 55 ft 4 kts 254°
2026-05-08 08:48 19.95048 110.46329 55 ft 4 kts 281°
2026-05-08 08:48 19.95043 110.46343 55 ft 1 kts 360°
2026-05-08 08:49 19.95042 110.46343 55 ft 0 kts
2026-05-08 08:51 19.95058 110.46343 55 ft 8 kts 360°
2026-05-08 08:51 19.95129 110.46344 59 ft 12 kts
2026-05-08 08:51 19.95188 110.46311 57 ft 9 kts 302°
2026-05-08 08:51 19.95202 110.46227 64 ft 25 kts 272°
2026-05-08 08:52 19.95202 110.46053 63 ft 21 kts 268°
2026-05-08 08:52 19.95200 110.45889 58 ft 24 kts 270°
2026-05-08 08:52 19.95202 110.45705 61 ft 27 kts 271°
2026-05-08 08:52 19.95206 110.45497 61 ft 29 kts 270°
2026-05-08 08:53 19.95207 110.45324 61 ft 22 kts 270°
2026-05-08 08:53 19.95204 110.44981 58 ft 27 kts 269°
2026-05-08 08:53 19.95230 110.44838 58 ft 13 kts 321°
2026-05-08 08:54 19.95314 110.44824 51 ft 12 kts 17°
2026-05-08 08:54 19.95367 110.44877 49 ft 9 kts 71°
2026-05-08 08:54 19.95378 110.44947 57 ft 10 kts 93°
2026-05-08 08:54 19.95374 110.45032 58 ft 20 kts 91°
2026-05-08 08:55 19.95376 110.45488 63 ft 101 kts 90°
2026-05-08 08:55 19.95376 110.46474 65 ft 167 kts 89°
2026-05-08 08:55 19.95398 110.47794 559 ft 184 kts 89°
2026-05-08 08:55 19.95459 110.49219 908 ft 201 kts 77°
2026-05-08 08:56 19.96126 110.50523 1509 ft 202 kts 56°
2026-05-08 08:56 19.97025 110.51688 2111 ft 207 kts 44°
2026-05-08 08:56 19.98246 110.52534 2645 ft 214 kts 22°
2026-05-08 08:56 19.99723 110.52799 3147 ft 219 kts
2026-05-08 08:57 20.01257 110.52706 3704 ft 222 kts 353°
2026-05-08 08:57 20.02785 110.52423 4261 ft 224 kts 348°
2026-05-08 08:57 20.04321 110.52053 4784 ft 227 kts 347°
2026-05-08 08:57 20.05867 110.51662 5315 ft 230 kts 347°
2026-05-08 08:58 20.07431 110.51280 5857 ft 232 kts 348°
2026-05-08 08:58 20.09016 110.50916 6400 ft 234 kts 348°
2026-05-08 08:58 20.10619 110.50570 6934 ft 236 kts 349°
2026-05-08 08:58 20.12235 110.50235 7501 ft 237 kts 349°
2026-05-08 08:59 20.13863 110.49906 8086 ft 239 kts 349°
2026-05-08 08:59 20.15506 110.49576 8692 ft 241 kts 349°
2026-05-08 08:59 20.17166 110.49244 9225 ft 248 kts 348°
2026-05-08 08:59 20.18928 110.48888 9484 ft 267 kts 349°
2026-05-08 09:00 20.20815 110.48507 9736 ft 283 kts 348°
2026-05-08 09:00 20.22776 110.48111 10078 ft 290 kts 348°
2026-05-08 09:00 20.24800 110.47702 10266 ft 302 kts 348°
2026-05-08 09:00 20.26911 110.47273 10423 ft 314 kts 348°
2026-05-08 09:01 20.29086 110.46829 10548 ft 323 kts 348°
2026-05-08 09:01 20.31320 110.46374 10663 ft 331 kts 348°
2026-05-08 09:01 20.33604 110.45910 10756 ft 337 kts 348°
2026-05-08 09:01 20.35926 110.45441 10840 ft 342 kts 348°
2026-05-08 09:02 20.38282 110.44962 10903 ft 346 kts 348°
2026-05-08 09:02 20.40658 110.44481 10967 ft 349 kts 347°
2026-05-08 09:02 20.43057 110.43994 11016 ft 352 kts 348°
2026-05-08 09:02 20.45472 110.43502 11053 ft 354 kts 348°
2026-05-08 09:03 20.47905 110.43008 11115 ft 359 kts 348°
2026-05-08 09:03 20.50390 110.42503 11613 ft 368 kts 348°
2026-05-08 09:03 20.52962 110.41980 11959 ft 384 kts 348°
2026-05-08 09:03 20.55640 110.41434 12241 ft 399 kts 348°
2026-05-08 09:04 20.58402 110.40871 12636 ft 408 kts 348°
2026-05-08 09:04 20.61204 110.40300 13140 ft 413 kts 348°
2026-05-08 09:04 20.64039 110.39724 13657 ft 417 kts 348°
2026-05-08 09:04 20.66894 110.39143 14117 ft 420 kts 348°
2026-05-08 09:05 20.69785 110.38555 14587 ft 423 kts 348°
2026-05-08 09:05 20.72685 110.37964 15052 ft 426 kts 348°
2026-05-08 09:05 20.75613 110.37367 15500 ft 429 kts 348°
2026-05-08 09:05 20.78558 110.36765 15959 ft 432 kts 348°
2026-05-08 09:06 20.81523 110.36160 16402 ft 435 kts 348°
2026-05-08 09:06 20.84503 110.35551 16857 ft 438 kts 348°
2026-05-08 09:06 20.87470 110.34945 17313 ft 441 kts 348°
2026-05-08 09:06 20.90487 110.34328 17772 ft 444 kts 348°
2026-05-08 09:07 20.93529 110.33707 18217 ft 446 kts 348°
2026-05-08 09:07 20.96593 110.33084 18596 ft 450 kts 349°
2026-05-08 09:07 20.99716 110.32762 18975 ft 453 kts 358°
2026-05-08 09:07 21.02879 110.32740 19368 ft 456 kts
2026-05-08 09:08 21.06065 110.32841 19761 ft 459 kts
2026-05-08 09:08 21.09251 110.33191 20130 ft 463 kts
2026-05-08 09:08 21.12360 110.34128 20514 ft 467 kts 20°
2026-05-08 09:08 21.15244 110.35734 20908 ft 471 kts 33°
2026-05-08 09:09 21.17809 110.37928 21309 ft 474 kts 41°
2026-05-08 09:09 21.20211 110.40358 21799 ft 475 kts 44°
2026-05-08 09:09 21.22529 110.42889 22227 ft 477 kts 45°
2026-05-08 09:09 21.24827 110.45475 22610 ft 481 kts 46°
2026-05-08 09:10 21.27138 110.48086 23015 ft 484 kts 46°
2026-05-08 09:10 21.29467 110.50699 23486 ft 486 kts 45°
2026-05-08 09:10 21.31824 110.53319 23821 ft 489 kts 45°
2026-05-08 09:10 21.34204 110.55944 24166 ft 492 kts 45°
2026-05-08 09:11 21.36605 110.58579 24503 ft 496 kts 45°
2026-05-08 09:11 21.39027 110.61230 24872 ft 499 kts 45°
2026-05-08 09:11 21.41459 110.63892 25270 ft 502 kts 45°
2026-05-08 09:11 21.43910 110.66577 25661 ft 505 kts 45°
2026-05-08 09:12 21.46374 110.69278 26083 ft 507 kts 45°
2026-05-08 09:12 21.48008 110.71070 26391 ft 508 kts 45°
2026-05-08 09:12 21.50490 110.73795 26784 ft 512 kts 45°
2026-05-08 09:12 21.52992 110.76543 27162 ft 516 kts 45°
2026-05-08 09:13 21.55509 110.79310 27573 ft 520 kts 45°
2026-05-08 09:13 21.58046 110.82101 27978 ft 524 kts 44°
2026-05-08 09:13 21.60604 110.84915 28354 ft 528 kts 44°
2026-05-08 09:13 21.63177 110.87747 28727 ft 531 kts 44°
2026-05-08 09:14 21.65762 110.90595 29077 ft 534 kts 44°
2026-05-08 09:14 21.68356 110.93456 29562 ft 533 kts 44°
2026-05-08 09:14 21.70939 110.96304 30081 ft 532 kts 44°
2026-05-08 09:14 21.73522 110.99156 30480 ft 533 kts 44°
2026-05-08 09:15 21.76116 111.02019 30806 ft 535 kts 44°
2026-05-08 09:15 21.78711 111.04886 31249 ft 533 kts 44°
2026-05-08 09:15 21.81294 111.07741 31711 ft 532 kts 44°
2026-05-08 09:15 21.83872 111.10593 32159 ft 531 kts 44°
2026-05-08 09:16 21.86448 111.13443 32574 ft 530 kts 44°
2026-05-08 09:16 21.89019 111.16290 32942 ft 531 kts 43°
2026-05-08 09:16 21.94150 111.21975 33050 ft 529 kts 43°
2026-05-08 09:17 21.99283 111.27666 33053 ft 530 kts 43°
2026-05-08 09:17 22.04431 111.33393 33063 ft 534 kts 43°
2026-05-08 09:18 22.09606 111.39149 33058 ft 535 kts 43°
2026-05-08 09:18 22.14785 111.44906 33052 ft 535 kts 43°
2026-05-08 09:19 22.19961 111.50673 33060 ft 535 kts 43°
2026-05-08 09:19 22.25134 111.56443 33053 ft 535 kts 43°
2026-05-08 09:20 22.30311 111.62223 33060 ft 537 kts 43°
2026-05-08 09:20 22.35467 111.67991 33061 ft 538 kts 43°
2026-05-08 09:21 22.40663 111.73811 33067 ft 538 kts 43°
2026-05-08 09:23 22.58820 111.94178 33065 ft 538 kts 43°
2026-05-08 09:23 22.64006 112.00015 33056 ft 538 kts 43°
2026-05-08 09:24 22.69182 112.05859 33070 ft 538 kts 43°
2026-05-08 09:24 22.74366 112.11699 33059 ft 538 kts 43°
2026-05-08 09:25 22.79545 112.17541 33065 ft 538 kts 43°
2026-05-08 09:25 22.84727 112.23399 33061 ft 538 kts 43°
2026-05-08 09:26 22.89913 112.29259 33063 ft 538 kts 43°
2026-05-08 09:26 22.95093 112.35130 33059 ft 538 kts 43°
2026-05-08 09:27 23.00262 112.41007 33039 ft 539 kts 44°
2026-05-08 09:27 23.04506 112.47753 33051 ft 548 kts 63°
2026-05-08 09:27 23.05786 112.51660 33061 ft 552 kts 74°
2026-05-08 09:28 23.06369 112.55787 33052 ft 555 kts 86°
2026-05-08 09:28 23.06126 112.64166 33053 ft 556 kts 94°
2026-05-08 09:29 23.05496 112.72536 33048 ft 557 kts 95°
2026-05-08 09:29 23.04847 112.80913 33043 ft 557 kts 94°
2026-05-08 09:30 23.04247 112.89246 33044 ft 557 kts 94°
2026-05-08 09:30 23.03665 112.97638 33047 ft 558 kts 94°
2026-05-08 09:31 23.03082 113.06035 33032 ft 558 kts 94°
2026-05-08 09:31 23.02494 113.14418 33044 ft 557 kts 94°
2026-05-08 09:32 23.02613 113.22797 33043 ft 555 kts 84°
2026-05-08 09:32 23.03420 113.31124 33028 ft 555 kts 82°
2026-05-08 09:33 23.04337 113.39440 33038 ft 555 kts 82°
2026-05-08 09:33 23.05250 113.47754 33031 ft 554 kts 82°
2026-05-08 09:34 23.06139 113.56055 33038 ft 553 kts 82°
2026-05-08 09:34 23.07015 113.64357 33036 ft 553 kts 82°
2026-05-08 09:35 23.07886 113.72665 33036 ft 553 kts 82°
2026-05-08 09:35 23.09461 113.80794 33032 ft 549 kts 68°
2026-05-08 09:35 23.11070 113.84536 33032 ft 545 kts 57°
2026-05-08 09:36 23.13237 113.87886 33027 ft 540 kts 46°
2026-05-08 09:36 23.18734 113.93361 33033 ft 536 kts 35°
2026-05-08 09:37 23.24588 113.98365 33060 ft 535 kts 33°
2026-05-08 09:37 23.30483 114.03317 33028 ft 535 kts 34°
2026-05-08 09:38 23.36357 114.08301 33049 ft 536 kts 34°
2026-05-08 09:38 23.42185 114.13263 33058 ft 536 kts 34°
2026-05-08 09:39 23.48049 114.18272 33047 ft 536 kts 34°
2026-05-08 09:39 23.53912 114.23274 33050 ft 535 kts 34°
2026-05-08 09:40 23.59769 114.28295 33055 ft 536 kts 34°
2026-05-08 09:40 23.65625 114.33330 33068 ft 537 kts 34°
2026-05-08 09:41 23.71564 114.38271 33064 ft 537 kts 32°
2026-05-08 09:41 23.77559 114.43132 33072 ft 537 kts 32°
2026-05-08 09:42 23.83550 114.48015 33075 ft 537 kts 33°
2026-05-08 09:42 23.89528 114.52921 33088 ft 538 kts 32°
2026-05-08 09:43 23.95518 114.57855 33080 ft 540 kts 32°
2026-05-08 09:43 24.01517 114.62803 33081 ft 541 kts 32°
2026-05-08 09:44 24.07535 114.67731 33091 ft 540 kts 32°
2026-05-08 09:44 24.13529 114.72693 33083 ft 541 kts 33°
2026-05-08 09:45 24.19535 114.77686 33085 ft 543 kts 32°
2026-05-08 09:45 24.25514 114.82658 33098 ft 544 kts 33°
2026-05-08 09:46 24.30856 114.88612 33099 ft 552 kts 46°
2026-05-08 09:46 24.35628 114.95237 33109 ft 554 kts 49°
2026-05-08 09:47 24.40295 115.01958 33097 ft 554 kts 49°
2026-05-08 09:47 24.44964 115.08683 33112 ft 554 kts 49°
2026-05-08 09:48 24.49652 115.15406 33102 ft 554 kts 49°
2026-05-08 09:48 24.54344 115.22127 33110 ft 554 kts 49°
2026-05-08 09:49 24.59035 115.28851 33095 ft 554 kts 49°
2026-05-08 09:49 24.63709 115.35565 33110 ft 552 kts 48°
2026-05-08 09:50 24.68374 115.42276 33103 ft 552 kts 49°
2026-05-08 09:50 24.72889 115.49117 33113 ft 553 kts 51°
2026-05-08 09:51 24.77317 115.56042 33110 ft 553 kts 51°
2026-05-08 09:51 24.81765 115.62957 33116 ft 553 kts 50°
2026-05-08 09:52 24.86226 115.69856 33114 ft 553 kts 50°
2026-05-08 09:52 24.90685 115.76749 33117 ft 553 kts 50°
2026-05-08 09:53 24.95147 115.83644 33118 ft 553 kts 50°
2026-05-08 09:53 24.99609 115.90545 33120 ft 553 kts 50°
2026-05-08 09:54 25.04031 115.97399 33119 ft 553 kts 50°
2026-05-08 09:54 25.08479 116.04323 33119 ft 552 kts 50°
2026-05-08 09:55 25.12912 116.11233 33122 ft 552 kts 50°
2026-05-08 09:55 25.17357 116.18157 33125 ft 553 kts 50°
2026-05-08 09:56 25.21803 116.25084 33120 ft 553 kts 50°
2026-05-08 09:56 25.26245 116.32022 33123 ft 553 kts 50°
2026-05-08 09:57 25.32894 116.42444 33125 ft 553 kts 50°
2026-05-08 09:57 25.37324 116.49398 33125 ft 553 kts 50°
2026-05-08 09:58 25.41752 116.56354 33131 ft 553 kts 50°
2026-05-08 09:58 25.46173 116.63310 33128 ft 553 kts 50°
2026-05-08 09:59 25.50594 116.70276 33146 ft 554 kts 50°
2026-05-08 09:59 25.54275 116.76083 33139 ft 555 kts 50°